SCP
0 0 0 0 0 0 0 0 0 0 0 0 0 0 0 0 0 0 0 0 0 0 0 0 0 0 0 0 0 0 0 0 0 0 0 0 0 0 0 0 0 0 0 0
0 0 0 0 0 0 0 0 0 0 0 0 0 0 0 0 0 0 0 0 0 0 0 0 0 0 0 0 0 0 0 0 0 0 0 0 0 0 0 0 0 0 0 0
0 0 0 0 0 0 0 0 0 0 0 0 0 0 0 0 0 0 0 0 0 0 0 0 0 0 0 0 0 0 0 0 0 0 0 0 0 0 0 0 0 0 0 0
0 0 0 0 0 0 0 0 0 0 0 0 0 0 0 0 0 0 0 0 0 0 0 0 0 0 0 0 0 0 0 0 0 0 0 0 0 0 0 0 0 0 0 0
0 0 0 0 0 0 0 0 0 0 0 0 0 0 0 0 0 0 0 0 0 0 0 0 0 0 0 0 0 0 0 0 0 0 0 0 0 0 0 0 0 0 0 0
0 0 0 0 0 0 0 0 0 0 0 0 0 0 0 0 0 0 0 0 0 0 0 0 0 0 0 0 0 0 0 0 0 0 0 0 0 0 0 0 0 0 0 0
0 0 0 0 0 0 0 0 0 0 0 0 0 0 0 0 0 0 0 0 0 0 0 0 0 0 0 0 0 0 0 0 0 0 0 0 0 0 0 0 0 0 0 0
0 0 0 0 0 0 0 0 0 0 0 0 0 0 0 0 0 0 0 0 0 0 0 0 0 0 0 0 0 0 0 0 0 0 0 0 0 0 0 0 0 0 0 0
0 0 0 0 0 0 0 0 0 0 0 0 0 0 0 0 0 0 0 0 0 0 0 0 0 0 0 0 0 0 0 0 0 0 0 0 0 0 0 0 0 0 0 0
0 0 0 0 0 0 0 0 0 0 0 0 0 0 0 0 0 0 0 0 0 0 0 0 0 0 0 0 0 0 0 0 0 0 0 0 0 0 0 0 0 0 0 0
0 0 0 0 0 0 0 0 0 0 0 0 0 0 0 0 0 0 0 0 0 0 0 0 0 0 0 0 0 0 0 0 0 0 0 0 0 0 0 0 0 0 0 0
0 0 0 0 0 0 0 0 0 0 0 0 0 0 0 0 0 0 0 0 0 0 0 0 0 0 0 0 0 0 0 0 0 0 0 0 0 0 0 0 0 0 0 0
0 0 0 0 0 0 0 0 0 0 0 0 0 0 0 0 0 0 0 0 0 0 0 0 0 0 0 0 0 0 0 0 0 0 0 0 0 0 0 0 0 0 0 0
0 0 0 0 0 0 0 0 0 0 0 0 0 0 0 0 0 0 0 0 0 0 0 0 0 0 0 0 0 0 0 0 0 0 0 0 0 0 0 0 0 0 0 0
0 0 0 0 0 0 0 0 0 0 0 0 0 0 0 0 0 0 0 0 0 0 0 0 0 0 0 0 0 0 0 0 0 0 0 0 0 0 0 0 0 0 0 0
0 0 0 0 0 0 0 0 0 0 0 0 0 0 0 0 0 0 0 0 0 0 0 0 0 0 0 0 0 0 0 0 0 0 0 0 0 0 0 0 0 0 0 0
0 0 0 0 0 0 0 0 0 0 0 0 0 0 0 0 0 0 0 0 0 0 0 0 0 0 0 0 0 0 0 0 0 0 0 0 0 0 0 0 0 0 0 0
0 0 0 0 0 0 0 0 0 0 0 0 0 0 0 0 0 0 0 0 0 0 0 0 0 0 0 0 0 0 0 0 0 0 0 0 0 0 0 0 0 0 0 0
0 0 0 0 0 0 0 0 0 0 0 0 0 0 0 0 0 0 0 0 0 0 0 0 0 0 0 0 0 0 0 0 0 0 0 0 0 0 0 0 0 0 0 0
0 0 0 0 0 0 0 0 0 0 0 0 0 0 0 0 0 0 0 0 0 0 0 0 0 0 0 0 0 0 0 0 0 0 0 0 0 0 0 0 0 0 0 0
0 0 0 0 0 0 0 0 0 0 0 0 0 0 0 0 0 0 0 0 0 0 0 0 0 0 0 0 0 0 0 0 0 0 0 0 0 0 0 0 0 0 0 0
0 0 0 0 0 0 0 0 0 0 0 0 0 0 0 0 0 0 0 0 0 0 0 0 0 0 0 0 0 0 0 0 0 0 0 0 0 0 0 0 0 0 0 0
0 0 0 0 0 0 0 0 0 0 0 0 0 0 0 0 0 0 0 0 0 0 0 0 0 0 0 0 0 0 0 0 0 0 0 0 0 0 0 0 0 0 0 0
0 0 0 0 0 0 0 0 0 0 0 0 0 0 0 0 0 0 0 0 0 0 0 0 0 0 0 0 0 0 0 0 0 0 0 0 0 0 0 0 0 0 0 0
0 0 0 0 0 0 0 0 0 0 0 0 0 0 0 0 0 0 0 0 0 0 0 0 0 0 0 0 0 0 0 0 0 0 0 0 0 0 0 0 0 0 0 0
0 0 0 0 0 0 0 0 0 0 0 0 0 0 0 0 0 0 0 0 0 0 0 0 0 0 0 0 0 0 0 0 0 0 0 0 0 0 0 0 0 0 0 0
Wind_Speed
4 4 6 10 11 8 5 5 8 8 6 5 9 12 12 9 7 8 8 8 8 7 4 3 4 5 6 6 7 7 8 7 7 5 4 4 3 2 1 1 2 2 2 2
3 7 12 9 6 6 6 7 8 8 4 4 7 12 12 10 10 11 13 12 11 7 5 4 4 4 5 6 6 7 8 7 7 5 4 3 3 2 1 1 1 1 1 1
11 8 8 8 7 7 7 7 7 7 6 4 4 9 8 7 6 6 9 11 11 13 11 8 6 5 5 6 6 7 7 7 7 6 5 4 4 3 2 1 0 0 0 1
8 8 5 6 8 9 8 8 7 5 2 5 1 6 9 5 4 6 8 9 11 10 9 8 7 7 6 5 5 7 7 7 6 6 6 6 4 3 2 1 1 1 0 0
9 8 10 11 10 10 8 5 4 2 3 3 3 4 11 3 6 9 10 11 11 11 11 10 9 8 6 6 6 6 7 6 6 6 7 6 4 3 2 1 1 1 1 1
8 5 9 11 7 8 5 3 4 5 3 5 7 7 10 6 10 8 9 11 12 11 10 9 7 7 6 5 6 6 7 6 5 6 6 7 6 5 4 2 1 0 1 1
5 6 4 5 5 3 5 6 1 2 1 8 4 6 13 10 9 10 15 16 13 12 12 11 11 9 8 8 7 7 8 6 6 6 6 6 6 6 5 3 2 1 0 1
8 7 9 8 9 8 7 10 8 6 6 6 3 8 11 7 6 7 10 12 12 12 12 13 13 11 10 9 8 8 8 6 6 6 5 5 5 4 3 3 2 2 2 2
10 9 4 7 6 13 7 6 7 5 2 4 7 7 9 3 2 3 8 12 14 14 14 13 12 11 11 10 9 9 8 7 6 6 6 5 5 4 3 3 2 1 1 2
9 6 3 2 5 3 8 8 5 5 5 6 7 6 6 6 5 5 10 14 14 13 12 12 12 12 11 9 8 8 8 7 6 6 6 4 4 4 3 2 2 2 2 1
8 6 2 2 8 11 7 6 6 5 5 6 4 8 7 7 7 9 12 14 15 16 16 14 12 11 10 9 8 8 8 7 6 6 5 5 4 3 3 2 2 2 1 2
8 6 5 7 5 5 7 9 9 7 6 6 4 9 6 4 5 8 10 11 12 14 13 12 11 11 10 10 9 9 8 8 7 6 5 5 4 3 3 2 2 2 2 2
12 8 5 1 2 3 5 6 8 5 4 5 5 9 4 2 1 4 7 9 10 11 10 10 11 12 13 12 11 10 9 8 7 6 6 5 4 3 3 2 2 2 2 3
11 7 9 12 8 8 7 8 10 9 6 6 9 8 5 4 4 5 7 9 9 11 12 12 12 12 12 11 11 10 9 8 7 6 6 5 4 4 3 3 2 3 3 4
8 7 6 6 5 6 8 10 12 13 13 10 9 10 11 9 8 8 7 7 8 9 11 14 14 12 11 10 10 9 9 8 7 7 6 5 4 3 3 3 3 3 4 5
5 6 6 5 6 6 7 8 11 12 12 12 9 11 9 7 4 5 7 8 10 12 13 13 12 12 12 12 11 10 9 7 7 7 5 4 4 3 3 3 3 4 4 5
6 7 6 4 3 2 9 10 10 8 9 10 15 17 8 6 8 9 9 10 12 12 12 12 13 13 13 12 12 11 9 7 7 6 5 4 4 3 4 3 4 5 5 5
9 7 5 4 4 11 10 7 10 10 10 11 9 8 8 11 8 6 7 9 10 9 9 10 10 10 9 9 9 9 8 8 6 5 4 4 3 4 4 4 5 5 5 5
6 8 5 5 6 9 7 5 7 9 10 9 12 10 5 2 1 3 3 5 7 7 7 7 8 9 9 10 10 9 7 6 5 5 4 4 4 4 4 5 6 5 5 6
4 5 6 6 6 9 9 7 5 5 8 7 9 10 7 7 3 6 3 3 4 5 6 8 8 9 10 8 9 9 7 6 5 5 4 4 4 4 5 6 6 5 5 6
6 4 6 7 7 9 9 3 6 6 10 5 7 8 9 9 7 3 5 5 6 7 8 9 10 9 8 8 8 7 6 5 5 4 3 3 4 4 5 5 5 5 5 6
13 10 9 7 7 11 6 7 10 9 3 3 4 5 7 5 4 5 6 7 8 8 8 9 9 7 6 7 8 6 5 4 3 3 3 3 4 4 4 5 5 5 6 6
11 12 9 11 11 6 8 10 7 5 5 5 5 5 7 7 6 6 6 7 7 8 8 7 9 8 5 5 6 6 4 3 3 3 3 4 4 4 4 5 6 5 5 5
5 4 5 5 7 5 6 5 3 5 6 5 5 7 8 8 8 8 8 7 7 7 7 7 8 7 5 4 4 4 3 3 3 3 4 4 4 5 5 4 4 5 5 6
8 8 6 6 5 2 4 7 6 4 4 5 5 6 8 9 9 9 8 8 7 6 5 6 7 6 5 4 3 3 3 3 3 4 4 4 5 5 5 5 5 6 6 7
6 9 10 8 9 8 8 7 8 8 7 8 7 5 5 8 9 9 8 7 7 7 6 6 5 5 4 3 3 3 3 3 3 4 4 4 4 4 5 6 7 10 12 17
Wind_Direction
159 132 196 205 200 204 210 235 262 265 258 218 236 251 258 248 229 217 203 192 184 180 175 134 111 111 113 120 127 133 138 145 141 137 137 135 142 139 130 153 175 183 187 187
127 220 218 208 205 209 225 246 264 280 276 225 254 264 261 243 222 208 197 189 180 171 164 147 129 119 124 131 130 132 138 143 144 140 137 134 134 130 128 116 113 163 179 188
189 215 209 205 215 217 230 226 241 259 306 313 296 293 275 265 226 207 193 183 177 172 168 162 147 138 134 140 144 140 139 138 136 130 116 96 78 64 59 58 34 316 200 190
219 229 207 200 213 198 235 227 220 237 261 282 273 289 285 269 251 209 191 181 181 174 165 162 154 151 153 155 143 134 133 131 133 132 134 138 141 155 183 180 202 323 346 184
224 206 203 214 216 190 212 207 195 207 204 271 252 240 279 270 244 230 204 191 185 177 169 166 161 157 152 147 141 136 130 128 132 131 137 136 136 147 136 110 96 26 358 356
224 222 200 208 208 189 168 101 55 47 83 266 223 195 272 235 220 217 199 193 186 176 167 158 150 142 141 142 140 139 134 133 135 132 135 140 143 145 136 132 129 74 350 347
237 241 215 157 133 137 130 114 30 317 295 249 216 200 249 248 227 205 192 189 183 173 165 160 159 159 157 158 157 151 145 145 146 140 142 147 149 150 153 158 164 170 239 286
197 237 207 185 168 169 178 157 173 204 226 269 225 222 251 261 263 217 185 173 170 173 172 171 171 168 167 166 164 160 157 154 154 149 150 149 149 147 155 164 170 184 205 232
188 228 232 200 176 150 157 195 178 152 237 266 269 272 296 278 348 143 153 161 177 180 179 177 174 173 171 171 172 169 163 159 162 159 153 154 156 155 161 167 169 188 220 244
166 206 240 185 112 154 158 160 137 162 194 236 270 263 251 259 235 186 177 181 185 182 182 181 179 178 177 174 169 166 164 165 164 162 161 158 162 164 162 159 182 214 245 258
164 177 217 175 182 179 156 167 171 173 183 181 242 263 232 236 219 199 199 192 186 187 188 186 183 179 173 166 165 167 167 161 162 164 159 153 162 162 158 169 202 223 246 273
166 147 196 232 241 195 178 179 162 173 219 197 199 264 272 258 226 201 200 196 193 193 191 185 178 172 172 173 172 172 170 167 168 163 157 160 162 159 164 189 219 228 256 276
160 153 152 298 270 189 203 202 189 175 161 181 191 258 296 316 224 205 202 198 193 191 186 179 177 179 180 179 176 174 172 170 165 158 156 159 165 172 190 210 228 244 266 284
153 154 179 195 200 182 197 207 193 181 199 216 220 243 276 269 253 231 214 204 195 192 188 185 187 187 184 179 176 172 171 167 161 158 160 169 183 192 204 216 234 254 267 279
147 177 195 207 202 174 198 204 196 202 209 210 227 228 242 240 234 233 221 200 191 194 193 192 191 187 180 175 172 169 167 164 160 158 166 183 191 196 205 224 246 262 271 274
138 166 176 216 214 204 223 222 208 214 219 226 244 254 243 242 227 229 219 200 199 202 200 196 189 181 179 176 171 165 164 163 157 162 176 184 189 201 219 238 253 266 273 275
156 148 159 216 220 226 243 215 205 209 209 201 226 242 240 235 226 222 217 206 206 205 198 190 187 184 180 175 167 166 164 156 158 167 177 187 195 215 235 247 257 264 268 270
156 153 154 172 168 231 241 208 198 207 224 212 221 234 226 227 230 229 212 203 208 201 191 185 177 170 163 156 151 149 149 154 161 171 185 196 203 225 242 250 258 262 262 266
159 152 146 159 209 258 282 235 188 198 244 223 224 237 233 192 90 297 241 205 200 190 177 168 160 151 146 148 147 142 147 152 162 181 197 207 210 226 241 252 259 262 264 269
147 143 147 161 192 228 235 224 182 153 257 239 209 219 201 143 184 250 217 166 148 136 136 135 133 131 138 143 140 140 151 159 181 195 205 212 213 223 239 251 260 261 261 266
164 167 179 180 212 249 244 219 123 178 238 229 200 201 179 187 206 191 134 123 127 127 128 128 129 133 139 139 135 142 155 182 195 194 204 217 224 233 245 255 259 267 271 276
178 182 191 178 210 242 223 150 183 213 198 175 179 179 174 175 132 130 132 132 130 126 126 127 125 126 131 136 137 148 176 190 184 190 211 231 242 250 256 260 270 272 274 280
196 191 186 195 213 213 186 195 209 172 176 185 173 169 151 147 156 150 145 141 137 134 132 128 129 129 132 140 143 159 186 180 183 205 232 247 256 258 258 261 272 279 275 275
234 179 165 212 241 224 213 214 200 185 188 181 168 158 156 157 158 153 149 148 142 137 135 131 132 136 146 153 156 171 182 182 191 225 246 254 260 268 268 264 262 267 272 274
194 169 178 216 235 205 232 214 197 177 156 145 144 160 163 152 157 159 158 158 151 141 137 138 143 151 162 163 173 186 189 184 213 239 252 259 259 264 272 268 260 264 254 259
187 172 178 208 201 186 212 206 179 168 175 168 154 151 157 159 158 154 156 154 148 144 139 140 146 156 169 175 197 214 210 202 218 246 256 257 262 266 268 278 286 276 276 286